Snowfall_Accumulation
0.0 0.0 0.0 0.0 0.0 0.0 0.0 0.0 0.0 0.0 0.0 0.0 0.0 0.0 0.0 0.0 0.0 0.0 0.0 0.0 0.0 0.0
0.0 0.0 0.0 0.0 0.0 0.0 0.0 0.0 0.0 0.0 0.0 0.0 0.0 0.0 0.0 0.0 0.0 0.0 0.0 0.0 0.0 0.0
0.0 0.0 0.0 0.0 0.0 0.0 0.0 0.0 0.0 0.0 0.0 0.0 0.0 0.0 0.0 0.0 0.0 0.0 0.0 0.0 0.0 0.0
0.0 0.0 0.0 0.0 0.0 0.0 0.0 0.0 0.0 0.0 0.0 0.0 0.0 0.0 0.0 0.0 0.0 0.5 0.5 0.0 0.0 0.0
0.0 0.0 0.0 0.0 0.0 0.0 0.0 0.0 0.0 0.0 0.0 0.0 0.0 0.0 0.0 0.0 0.8 0.8 0.0 0.0 0.0 0.0
0.0 0.0 0.0 0.0 0.0 0.0 0.0 0.0 0.0 0.0 0.0 0.0 0.0 0.0 0.0 0.0 0.0 0.0 0.0 0.0 0.0 0.0
0.0 0.0 0.0 0.0 0.0 0.0 0.0 0.0 0.0 0.0 0.0 0.0 0.0 0.0 0.0 0.0 0.0 0.0 0.0 0.0 0.0 0.0
0.0 0.0 0.2 0.8 1.0 0.9 0.8 0.0 0.0 0.0 0.3 0.0 0.0 0.0 0.0 0.0 1.1 0.8 0.0 0.0 0.0 0.0
1.5 1.8 1.9 1.8 1.3 0.9 0.8 0.8 0.9 0.8 0.8 0.8 0.0 nan nan 0.1 1.0 1.1 0.0 0.1 0.0 0.0
2.2 2.0 1.7 1.4 1.2 1.0 1.0 1.0 0.9 0.8 0.8 0.8 0.8 nan nan nan 1.2 1.2 0.1 0.0 0.0 0.0
1.6 2.8 1.6 1.4 1.4 1.1 1.0 1.2 1.0 1.2 1.1 0.9 0.8 nan nan nan 1.0 1.0 0.0 0.0 0.0 0.1
2.2 3.2 1.8 3.9 1.9 1.5 2.5 1.9 3.0 3.1 4.4 3.6 3.5 nan nan 2.1 3.1 2.2 1.7 0.0 0.0 0.1
2.1 4.5 3.7 2.2 3.3 3.8 3.6 3.4 4.2 3.9 3.5 0.9 4.9 nan nan nan 7.9 7.2 4.6 2.6 0.1 0.0
2.2 4.8 3.1 3.6 3.1 4.3 4.8 2.7 4.5 4.2 3.3 3.7 2.1 2.4 nan nan 4.8 6.9 8.3 6.9 4.4 2.3
Water_Equivalent
0.00 0.00 0.00 0.00 0.00 0.00 0.00 0.00 0.00 0.00 0.00 0.00 0.00 0.00 0.00 0.00 0.00 0.00 0.00 0.00 0.00 0.00
0.00 0.00 0.00 0.00 0.00 0.00 0.00 0.00 0.00 0.00 0.00 0.00 0.00 0.00 0.00 0.00 0.00 0.00 0.00 0.00 0.00 0.00
0.00 0.00 0.00 0.00 0.00 0.00 0.00 0.00 0.00 0.00 0.00 0.00 0.00 0.00 0.00 0.00 0.00 0.00 0.00 0.00 0.00 0.00
0.00 0.00 0.00 0.00 0.00 0.00 0.00 0.00 0.00 0.00 0.00 0.00 0.00 0.00 0.00 0.00 0.00 0.05 0.05 0.00 0.00 0.00
0.00 0.00 0.00 0.00 0.00 0.00 0.00 0.00 0.00 0.00 0.00 0.00 0.00 0.00 0.00 0.00 0.08 0.08 0.00 0.00 0.00 0.00
0.00 0.00 0.00 0.00 0.00 0.00 0.00 0.00 0.00 0.00 0.00 0.00 0.00 0.00 0.00 0.00 0.00 0.00 0.00 0.00 0.00 0.00
0.00 0.00 0.00 0.00 0.00 0.00 0.00 0.00 0.00 0.00 0.00 0.00 0.00 0.00 0.00 0.00 0.00 0.00 0.00 0.00 0.00 0.00
0.00 0.00 0.02 0.08 0.10 0.09 0.08 0.00 0.00 0.00 0.03 0.00 0.00 0.00 0.00 0.00 0.11 0.08 0.00 0.00 0.00 0.00
0.15 0.18 0.19 0.18 0.13 0.09 0.08 0.08 0.09 0.08 0.08 0.08 0.00 nan nan 0.01 0.10 0.11 0.00 0.01 0.00 0.00
0.22 0.20 0.17 0.14 0.12 0.10 0.10 0.10 0.09 0.08 0.08 0.08 0.08 nan nan nan 0.12 0.12 0.01 0.00 0.00 0.00
0.16 0.29 0.16 0.14 0.14 0.11 0.10 0.12 0.10 0.12 0.11 0.09 0.08 nan nan nan 0.10 0.10 0.00 0.00 0.00 0.01
0.23 0.32 0.17 0.38 0.18 0.14 0.24 0.18 0.30 0.31 0.45 0.37 0.35 nan nan 0.21 0.31 0.22 0.17 0.00 0.00 0.01
0.21 0.45 0.36 0.21 0.31 0.37 0.36 0.34 0.42 0.39 0.35 0.11 0.49 nan nan nan 0.79 0.72 0.46 0.26 0.01 0.01
0.21 0.47 0.30 0.36 0.30 0.43 0.47 0.26 0.44 0.41 0.33 0.37 0.22 0.24 nan nan 0.48 0.69 0.82 0.69 0.44 0.23
SL_Ratio
nan nan nan nan nan nan nan nan nan nan nan nan nan nan nan nan nan nan nan nan nan nan
nan nan nan nan nan nan nan nan nan nan nan nan nan nan nan nan nan nan nan nan nan nan
nan nan nan nan nan nan nan nan nan nan nan nan nan nan nan nan nan nan nan nan nan nan
nan nan nan nan nan nan nan nan nan nan nan nan nan nan nan nan nan 10.0 10.0 5.0 8.8 5.0
nan nan nan nan nan nan nan nan nan nan nan nan nan nan nan 9.6 10.0 10.0 10.4 nan 15.0 10.0
nan nan nan nan nan nan nan nan nan nan nan nan nan nan nan nan nan nan nan nan 12.5 11.3
nan nan nan nan nan nan nan nan nan nan nan nan nan nan nan nan nan nan nan nan nan 15.0
nan nan 10.0 10.0 10.0 10.0 10.0 nan nan nan 10.0 nan nan nan nan 10.0 10.0 10.2 12.5 11.9 11.0 10.0
10.0 10.0 10.0 10.0 10.0 10.0 10.0 10.0 10.0 10.0 10.0 10.0 nan nan nan 11.6 10.4 10.1 11.5 11.3 10.0 10.0
10.0 10.0 10.0 10.0 10.0 10.0 10.0 10.0 10.0 10.0 10.0 10.0 10.0 nan nan nan 10.1 10.1 11.1 11.7 10.4 9.6
10.0 9.9 10.0 10.0 10.0 10.1 10.2 10.3 10.3 10.1 10.1 10.1 10.0 nan nan nan 10.2 10.2 11.3 11.1 10.5 10.3
10.0 10.0 10.2 10.2 10.6 10.8 10.3 10.4 10.1 10.0 10.0 10.0 10.0 nan nan 10.0 10.1 10.1 10.0 9.6 9.6 9.6
10.2 10.2 10.3 10.5 10.4 10.2 10.1 10.1 10.0 10.0 10.0 8.3 10.0 nan nan nan 10.0 10.0 10.0 10.0 9.5 3.4
10.5 10.2 10.4 10.2 10.2 10.1 10.2 10.3 10.2 10.1 10.1 10.0 9.4 10.0 nan nan 9.9 10.0 10.0 10.0 10.0 9.9